SAA260 LIMC-FAOR

Flight info

Callsign SAA260
Flight time N/A
Altitude 35000
Route DOGUB6TXLAGEN6I/35R LAGEN DCT PIDAD DCT TALEP DCT VAREK DCT ERPIN DCT ETOIL/N0462F370 DCT CIRTA UA605 CSO UM998 ENBUT/N0463F390 UM998 BUGRO/N0460F410 UM998 IBRIT UT941 RUDAS UQ25 ITROL/N0396F240 Q44 AVAGO AVAGO1D
Aircraft A343/H-SDE2E3FGHIJ4J5M1RWXY/LB1D1

Departure

Time 2026-05-05 20:51
Airport Milan Malpensa International Airport (LIMC)

Arrival

Time N/A
Airport O.R. Tambo International Airport (FAOR)
Time Latitude Longitude Altitude Speed Heading
2026-05-05 20:01 45.62228 8.71789 732 ft 0 kts 170°
2026-05-05 20:23 45.62233 8.71788 669 ft 4 kts 170°
2026-05-05 20:23 45.62260 8.71781 733 ft 4 kts 168°
2026-05-05 20:24 45.62286 8.71773 731 ft 3 kts 168°
2026-05-05 20:24 45.62306 8.71763 732 ft 4 kts 124°
2026-05-05 20:24 45.62312 8.71730 732 ft 4 kts 84°
2026-05-05 20:24 45.62311 8.71713 732 ft 1 kts 79°
2026-05-05 20:28 45.62312 8.71723 732 ft 4 kts 79°
2026-05-05 20:28 45.62322 8.71796 734 ft 9 kts 79°
2026-05-05 20:28 45.62334 8.71883 734 ft 9 kts 79°
2026-05-05 20:29 45.62345 8.71967 733 ft 9 kts 79°
2026-05-05 20:29 45.62356 8.72050 735 ft 8 kts 79°
2026-05-05 20:29 45.62336 8.72115 735 ft 7 kts 146°
2026-05-05 20:29 45.62269 8.72137 732 ft 14 kts 169°
2026-05-05 20:30 45.62161 8.72167 731 ft 16 kts 169°
2026-05-05 20:30 45.62046 8.72198 727 ft 17 kts 169°
2026-05-05 20:30 45.61927 8.72229 729 ft 18 kts 169°
2026-05-05 20:30 45.61805 8.72266 724 ft 18 kts 168°
2026-05-05 20:31 45.61680 8.72302 722 ft 19 kts 169°
2026-05-05 20:31 45.61550 8.72336 720 ft 19 kts 169°
2026-05-05 20:31 45.61431 8.72367 715 ft 2 kts 174°
2026-05-05 20:31 45.61389 8.72343 720 ft 9 kts 233°
2026-05-05 20:32 45.61384 8.72275 718 ft 6 kts 264°
2026-05-05 20:32 45.61369 8.72214 720 ft 9 kts 235°
2026-05-05 20:32 45.61286 8.72207 715 ft 16 kts 168°
2026-05-05 20:32 45.61177 8.72238 716 ft 16 kts 168°
2026-05-05 20:33 45.61064 8.72270 712 ft 17 kts 169°
2026-05-05 20:33 45.60948 8.72303 698 ft 17 kts 169°
2026-05-05 20:33 45.60832 8.72336 699 ft 17 kts 169°
2026-05-05 20:33 45.60720 8.72367 705 ft 16 kts 169°
2026-05-05 20:34 45.60641 8.72452 698 ft 14 kts 111°
2026-05-05 20:34 45.60631 8.72589 701 ft 14 kts 95°
2026-05-05 20:34 45.60622 8.72722 700 ft 13 kts 95°
2026-05-05 20:34 45.60613 8.72851 707 ft 13 kts 97°
2026-05-05 20:35 45.60603 8.72975 704 ft 12 kts 97°
2026-05-05 20:35 45.60593 8.73095 700 ft 12 kts 96°
2026-05-05 20:35 45.60597 8.73214 696 ft 13 kts 71°
2026-05-05 20:35 45.60702 8.73316 698 ft 22 kts 24°
2026-05-05 20:36 45.60840 8.73397 704 ft 20 kts 15°
2026-05-05 20:36 45.60976 8.73388 701 ft 19 kts 350°
2026-05-05 20:36 45.61106 8.73356 700 ft 18 kts 350°
2026-05-05 20:36 45.61226 8.73320 703 ft 17 kts 348°
2026-05-05 20:37 45.61336 8.73286 713 ft 16 kts 348°
2026-05-05 20:37 45.61438 8.73259 715 ft 14 kts 350°
2026-05-05 20:37 45.61530 8.73236 716 ft 12 kts 349°
2026-05-05 20:37 45.61608 8.73213 714 ft 11 kts 348°
2026-05-05 20:38 45.61674 8.73194 719 ft 9 kts 348°
2026-05-05 20:38 45.61716 8.73211 720 ft 7 kts 56°
2026-05-05 20:38 45.61707 8.73281 717 ft 8 kts 121°
2026-05-05 20:38 45.61680 8.73336 717 ft 0 kts 124°
2026-05-05 20:39 45.61680 8.73337 717 ft 0 kts 124°
2026-05-05 20:40 45.61673 8.73351 715 ft 3 kts 124°
2026-05-05 20:40 45.61648 8.73406 717 ft 12 kts 123°
2026-05-05 20:40 45.61642 8.73419 716 ft 1 kts 123°
2026-05-05 20:40 45.61634 8.73435 715 ft 3 kts 123°
2026-05-05 20:41 45.61631 8.73443 706 ft 0 kts 123°
2026-05-05 20:41 45.61630 8.73445 705 ft 3 kts 123°
2026-05-05 20:41 45.61591 8.73570 713 ft 21 kts 95°
2026-05-05 20:41 45.61639 8.73728 704 ft 11 kts 21°
2026-05-05 20:42 45.61679 8.73721 699 ft 3 kts 349°
2026-05-05 20:42 45.61680 8.73721 700 ft 0 kts 349°
2026-05-05 20:43 45.61732 8.73707 713 ft 27 kts 349°
2026-05-05 20:43 45.61948 8.73646 718 ft 31 kts 348°
2026-05-05 20:43 45.62148 8.73591 724 ft 28 kts 349°
2026-05-05 20:44 45.62329 8.73542 729 ft 27 kts 349°
2026-05-05 20:44 45.62493 8.73453 729 ft 24 kts 312°
2026-05-05 20:44 45.62585 8.73268 732 ft 22 kts 304°
2026-05-05 20:44 45.62666 8.73098 735 ft 20 kts 304°
2026-05-05 20:45 45.62722 8.72942 735 ft 10 kts 258°
2026-05-05 20:45 45.62676 8.72919 735 ft 10 kts 170°
2026-05-05 20:45 45.62522 8.72961 735 ft 33 kts 169°
2026-05-05 20:46 45.62296 8.73023 727 ft 33 kts 169°
2026-05-05 20:46 45.62072 8.73084 724 ft 33 kts 169°
2026-05-05 20:46 45.61850 8.73143 722 ft 30 kts 169°
2026-05-05 20:46 45.61707 8.73280 718 ft 22 kts 124°
2026-05-05 20:47 45.61644 8.73413 717 ft 0 kts 125°
2026-05-05 20:48 45.61637 8.73428 715 ft 5 kts 125°
2026-05-05 20:48 45.61607 8.73489 716 ft 9 kts 124°
2026-05-05 20:48 45.61590 8.73545 714 ft 0 kts 106°
2026-05-05 20:49 45.61590 8.73547 714 ft 4 kts 106°
2026-05-05 20:49 45.61596 8.73722 698 ft 11 kts 53°
2026-05-05 20:49 45.61631 8.73735 700 ft 4 kts 353°
2026-05-05 20:50 45.61648 8.73730 703 ft 0 kts 349°
2026-05-05 20:50 45.61678 8.73722 699 ft 16 kts 349°
2026-05-05 20:50 45.61963 8.73643 718 ft 68 kts 349°
2026-05-05 20:51 45.62588 8.73468 731 ft 114 kts 349°
2026-05-05 20:51 45.63482 8.73219 749 ft 150 kts 349°
2026-05-05 20:51 45.64592 8.72901 994 ft 164 kts 348°
2026-05-05 20:51 45.65707 8.72599 1474 ft 164 kts 347°
2026-05-05 20:52 45.66837 8.72277 1964 ft 169 kts 348°
2026-05-05 20:52 45.68051 8.71899 2225 ft 188 kts 348°
2026-05-05 20:52 45.69400 8.71471 2515 ft 208 kts 348°
2026-05-05 20:52 45.70900 8.70995 2723 ft 235 kts 347°
2026-05-05 20:53 45.72575 8.70465 3236 ft 248 kts 347°
2026-05-05 20:53 45.74254 8.69908 3905 ft 255 kts 343°
2026-05-05 20:53 45.75810 8.68656 4561 ft 262 kts 316°
2026-05-05 20:53 45.76826 8.66484 4932 ft 267 kts 290°
2026-05-05 20:54 45.77203 8.63887 5021 ft 267 kts 276°
2026-05-05 20:54 45.77360 8.61224 5025 ft 269 kts 274°
2026-05-05 20:54 45.77422 8.58557 5239 ft 269 kts 265°
2026-05-05 20:54 45.76806 8.56023 5730 ft 274 kts 235°
2026-05-05 20:55 45.75425 8.54191 6519 ft 272 kts 207°
2026-05-05 20:55 45.73668 8.53229 7310 ft 270 kts 195°
2026-05-05 20:55 45.71856 8.52549 7816 ft 270 kts 193°
2026-05-05 20:55 45.70023 8.51902 8005 ft 270 kts 193°
2026-05-05 20:56 45.68196 8.51261 8020 ft 270 kts 193°
2026-05-05 20:56 45.66368 8.50622 8017 ft 271 kts 193°
2026-05-05 20:56 45.64539 8.49978 8023 ft 271 kts 193°
2026-05-05 20:56 45.62709 8.49310 8025 ft 272 kts 193°
2026-05-05 20:57 45.60877 8.48636 8008 ft 272 kts 193°
2026-05-05 20:57 45.59015 8.47951 8022 ft 272 kts 193°
2026-05-05 20:57 45.57204 8.47286 8016 ft 272 kts 193°
2026-05-05 20:57 45.55366 8.46613 8014 ft 272 kts 193°
2026-05-05 20:58 45.53537 8.45942 8017 ft 272 kts 193°
2026-05-05 20:58 45.51694 8.45268 8024 ft 272 kts 193°
2026-05-05 20:58 45.49858 8.44595 8013 ft 272 kts 193°
2026-05-05 20:58 45.48025 8.43923 8019 ft 272 kts 193°
2026-05-05 20:59 45.46188 8.43249 8013 ft 272 kts 193°
2026-05-05 20:59 45.44356 8.42558 8004 ft 273 kts 193°
2026-05-05 20:59 45.42523 8.41854 8005 ft 273 kts 193°
2026-05-05 20:59 45.41311 8.41388 8004 ft 273 kts 193°
2026-05-05 21:00 45.38861 8.40446 8004 ft 273 kts 193°
2026-05-05 21:00 45.37025 8.39740 8018 ft 273 kts 193°
2026-05-05 21:00 45.35194 8.39037 8005 ft 273 kts 193°
2026-05-05 21:00 45.33957 8.38562 8020 ft 273 kts 193°
2026-05-05 21:01 45.32149 8.37868 8025 ft 272 kts 193°
2026-05-05 21:01 45.29798 8.36543 8403 ft 275 kts 205°
2026-05-05 21:01 45.28681 8.35680 8843 ft 276 kts 206°
2026-05-05 21:01 45.27019 8.34347 9694 ft 272 kts 206°
2026-05-05 21:02 45.25388 8.32995 10382 ft 275 kts 207°
2026-05-05 21:02 45.23688 8.31589 10682 ft 291 kts 207°
2026-05-05 21:02 45.21854 8.30178 10920 ft 305 kts 201°
2026-05-05 21:02 45.19814 8.29164 11169 ft 319 kts 194°
2026-05-05 21:03 45.17617 8.28316 11412 ft 333 kts 193°
2026-05-05 21:03 45.15339 8.27479 11771 ft 343 kts 193°
2026-05-05 21:03 45.13006 8.26635 12280 ft 349 kts 193°
2026-05-05 21:03 45.10627 8.25828 12838 ft 353 kts 189°
2026-05-05 21:04 45.08178 8.25541 13420 ft 356 kts 178°
2026-05-05 21:04 45.05688 8.25922 13864 ft 363 kts 171°
2026-05-05 21:04 45.03198 8.26615 14005 ft 365 kts 168°
2026-05-05 21:04 45.00730 8.27484 14024 ft 366 kts 166°
2026-05-05 21:05 44.98280 8.28429 14022 ft 366 kts 165°
2026-05-05 21:05 44.95822 8.29396 14020 ft 366 kts 166°
2026-05-05 21:05 44.93366 8.30348 14022 ft 366 kts 166°
2026-05-05 21:05 44.90906 8.31279 14023 ft 366 kts 166°
2026-05-05 21:06 44.88440 8.32192 14020 ft 366 kts 166°
2026-05-05 21:06 44.85966 8.33095 14021 ft 367 kts 166°
2026-05-05 21:06 44.83488 8.33992 14023 ft 368 kts 166°
2026-05-05 21:06 44.81003 8.34889 14024 ft 368 kts 166°
2026-05-05 21:07 44.78519 8.35783 14023 ft 369 kts 166°
2026-05-05 21:07 44.76037 8.36676 14012 ft 369 kts 166°
2026-05-05 21:07 44.73551 8.37571 14021 ft 369 kts 167°
2026-05-05 21:07 44.71062 8.38466 14021 ft 370 kts 166°
2026-05-05 21:08 44.68564 8.39365 14020 ft 370 kts 166°
2026-05-05 21:08 44.66076 8.40259 14224 ft 371 kts 166°
2026-05-05 21:08 44.63562 8.41163 14764 ft 372 kts 167°
2026-05-05 21:08 44.61058 8.42063 15382 ft 373 kts 167°
2026-05-05 21:09 44.58524 8.42973 15934 ft 376 kts 167°